Home > Weather > Longueuil > Past weeks

Flag for Canada Past Weather in Longueuil, Quebec, Canada — Yesterday and Last 2 Weeks

Now
80 °F

Warm.


Feels Like: 81 °F
Forecast: 57 / 72 °F
Wind: 6 mph from Southwest

Location: Mc Tavish

Current Time: May 30, 2016 at 8:14:50 PM

Latest Report: May 30, 2016 at 7:00 PM


Visibility: N/A

Pressure: 29.74 "Hg

Humidity: 50%

Dew Point: 59 °F

Location of LongueuilLocation

Past Weather in Longueuil — Graph

°F

Longueuil Temperature Yesterday

Maximum temperature yesterday: 81 °F (at 6:00 PM)
Minimum temperature yesterday: 60 °F (at 10:00 AM)
Average temperature yesterday: 68 °F

High & Low Weather Summary for the Past Weeks

 TemperatureHumidityPressure
High89 °F (May 27, 3:00 PM)94% (May 30, 2:00 AM)30.22 "Hg (May 30, 2:00 AM)
Low35 °F (May 16, 4:00 AM)16% (May 24, 4:00 PM)29.65 "Hg (May 15, 6:00 PM)
Average63 °F55%30.01 "Hg
* Reported May 15 6:00 PM — May 30 6:00 PM, Longueuil, Weather by CustomWeather, © 2016

Note: Actual official high and low records may vary slightly from our data, if they occured in-between our weather recording intervals... More about our weather records

Advertising

Longueuil Weather History for the Previous 24 Hours

Scroll right to see more
 ConditionsComfort  
Time TempWeatherWind HumidityBarometerVisibility
6:00 PM
Mon, May 30
82 °FWarm.5 mph46%29.73 "HgN/A
5:00 PM83 °FWarm.8 mph45%29.74 "HgN/A
4:00 PM83 °FWarm.5 mph44%29.75 "HgN/A
3:00 PM84 °FWarm.8 mph43%29.75 "HgN/A
2:00 PM83 °FWarm.7 mph47%29.75 "HgN/A
1:00 PM83 °FWarm.5 mph48%29.77 "HgN/A
12:00 PM81 °FWarm.5 mph53%29.78 "HgN/A
11:00 AM78 °FWarm.7 mph57%29.81 "HgN/A
10:00 AM76 °FMild.8 mph61%29.83 "HgN/A
9:00 AM74 °FMild.6 mph70%29.85 "HgN/A
8:00 AM72 °FMild.2 mph74%29.85 "HgN/A
7:00 AM69 °FMild.3 mph92%29.85 "HgN/A
6:00 AM68 °FMild.3 mph93%29.86 "HgN/A
5:00 AM69 °FMild.3 mph92%29.87 "HgN/A
4:00 AM69 °FMild.3 mph93%29.86 "HgN/A
3:00 AM69 °FMild.3 mph94%29.88 "HgN/A
2:00 AM68 °FMild.3 mph94%29.89 "HgN/A
1:00 AM69 °FMild.5 mph88%29.91 "HgN/A
12:00 AM70 °FMild.3 mph89%29.93 "HgN/A
11:00 PM
Sun, May 29
72 °FMild.8 mph80%29.93 "HgN/A
10:00 PM73 °FMild.5 mph73%29.93 "HgN/A
9:00 PM74 °FMild.7 mph68%29.92 "HgN/A
8:00 PM76 °FMild.5 mph69%29.92 "HgN/A
Weather by CustomWeather, © 2016

See weather overviewHow to use our weather pages